Home > Weather > Wright > Past weeks

Flag for USA Past Weather in Wright, Florida, USA — Yesterday and Last 2 Weeks

Now
90 °F

Passing clouds.


Feels Like: 103 °F
Forecast: 78 / 93 °F
Wind: 8 mph from Southwest

Location: Hurlburt Field

Current Time: Jun 26, 2016 at 10:38:13 AM

Latest Report: Jun 26, 2016 at 9:58 AM


Visibility: 10 mi

Pressure: 30.11 "Hg

Humidity: 65%

Dew Point: 77 °F

Location of WrightLocation

Past Weather in Wright — Graph

°F

Wright Temperature Yesterday

Maximum temperature yesterday: 90 °F (at 12:58 PM)
Minimum temperature yesterday: 72 °F (at 5:58 AM)
Average temperature yesterday: 84 °F

High & Low Weather Summary for the Past Weeks

 TemperatureHumidityPressure
High91 °F (Jun 13, 12:58 PM)97% (Jun 12, 2:58 AM)30.25 "Hg (Jun 12, 2:58 AM)
Low65 °F (Jun 21, 5:58 AM)39% (Jun 22, 11:58 AM)29.86 "Hg (Jun 17, 5:58 PM)
Average81 °F72%30.05 "Hg
* Reported Jun 11 8:58 AM — Jun 26 8:58 AM, Wright, Weather by CustomWeather, © 2016

Note: Actual official high and low records may vary slightly from our data, if they occured in-between our weather recording intervals... More about our weather records

Advertising

Wright Weather History for the Previous 24 Hours

Scroll right to see more
 ConditionsComfort  
Time TempWeatherWind HumidityBarometerVisibility
8:58 AM
Sun, Jun 26
87 °FSunny.7 mph66%30.11 "Hg10 mi
7:58 AM85 °FSunny.2 mph72%30.10 "Hg10 mi
6:58 AM79 °FSunny.No wind94%30.09 "Hg10 mi
5:58 AM75 °FMild.N/A96%30.07 "HgN/A
4:58 AM75 °FClear.No wind95%30.06 "Hg10 mi
3:58 AM77 °FClear.No wind91%30.05 "Hg10 mi
2:58 AM81 °FClear.1 mph80%30.05 "Hg10 mi
1:58 AM82 °FClear.2 mph80%30.06 "Hg10 mi
12:58 AM83 °FClear.No wind77%30.07 "Hg10 mi
11:58 PM
Sat, Jun 25
83 °FClear.No wind78%30.07 "Hg10 mi
10:58 PM83 °FClear.No wind76%30.06 "Hg10 mi
9:58 PM84 °FClear.2 mph73%30.06 "Hg10 mi
8:58 PM84 °FClear.5 mph73%30.04 "Hg10 mi
7:58 PM85 °FClear.5 mph72%30.02 "Hg10 mi
6:58 PM87 °FSunny.7 mph67%30.02 "Hg10 mi
5:58 PM88 °FSunny.9 mph64%30.02 "Hg10 mi
4:58 PM89 °FSunny.10 mph61%30.03 "Hg10 mi
3:58 PM90 °FSunny.10 mph60%30.04 "Hg10 mi
2:58 PM90 °FSunny.10 mph59%30.06 "Hg10 mi
1:58 PM90 °FSunny.10 mph61%30.07 "Hg10 mi
12:58 PM90 °FPassing clouds.10 mph58%30.07 "Hg10 mi
11:58 AM89 °FSunny.9 mph60%30.09 "Hg10 mi
10:58 AM87 °FSunny.8 mph64%30.10 "Hg10 mi
Weather by CustomWeather, © 2016

See weather overviewHow to use our weather pages